GEESAT-5 09

Last updated on Sun Sep 21 2025 00:02:08 GMT+0000 (Coordinated Universal Time)

1 65558U 25201J 25258.56995882 .00003611 00000+0 37543-3 0 9998 2 65558 49.9806 233.5797 0010843 312.9225 47.0806 14.92028831 1007

Satellite not in orbit

GEESAT-5 09